,,Stat6,,Stat2,,Stat8,,Stat9,,Stat10,,Wind1,,Wind1,
time,status,PA1M_AVG,status,PR1M_SUM,status,RH1M_AVG,status,SR1M_AVG,status,TA1M_AVG,status,W1dAve1m,status,W1sAve1m,
2008-11-22, 00:00:00,VALID,917.329,VALID,0,VALID,100,VALID,0,VALID,21.167,VALID,7,VALID,0,
2008-11-22, 00:01:00,VALID,917.326,VALID,0,VALID,100,VALID,-0.0169808,VALID,21.1472,VALID,7,VALID,0,
2008-11-22, 00:02:00,VALID,917.305,VALID,0,VALID,100,VALID,0.0169808,VALID,21.154,VALID,7,VALID,0,
2008-11-22, 00:03:00,VALID,917.301,VALID,0,VALID,100,VALID,0,VALID,21.1667,VALID,30,VALID,0.0492932,
2008-11-22, 00:04:00,VALID,917.276,VALID,0,VALID,100,VALID,0,VALID,21.1767,VALID,38,VALID,0.00292969,
2008-11-22, 00:05:00,VALID,917.258,VALID,0,VALID,100,VALID,0.0169808,VALID,21.16,VALID,38,VALID,0,
2008-11-22, 00:06:00,VALID,917.231,VALID,0,VALID,100,VALID,0.0169808,VALID,21.1694,VALID,34,VALID,0,
2008-11-22, 00:07:00,VALID,917.205,VALID,0,VALID,100,VALID,0,VALID,21.1921,VALID,35,VALID,0,
2008-11-22, 00:08:00,VALID,917.188,VALID,0,VALID,100,VALID,0.0169808,VALID,21.2057,VALID,35,VALID,0,
2008-11-22, 00:09:00,VALID,917.176,VALID,0,VALID,100,VALID,0,VALID,21.1986,VALID,42,VALID,0,
2008-11-22, 00:10:00,VALID,917.16,VALID,0,VALID,100,VALID,0,VALID,21.2019,VALID,48,VALID,0.0280878,
2008-11-22, 00:11:00,VALID,917.141,VALID,0,VALID,100,VALID,-0.0339617,VALID,21.2186,VALID,40,VALID,0.0530523,
2008-11-22, 00:12:00,VALID,917.134,VALID,0,VALID,100,VALID,0.0169808,VALID,21.1797,VALID,39,VALID,0.142442,
2008-11-22, 00:13:00,VALID,917.127,VALID,0,VALID,100,VALID,-0.0169808,VALID,21.1502,VALID,36,VALID,0.0957485,
2008-11-22, 00:14:00,VALID,917.108,VALID,0,VALID,100,VALID,0.0339617,VALID,21.1278,VALID,32,VALID,0,
2008-11-22, 00:15:00,VALID,917.093,VALID,0,VALID,100,VALID,0,VALID,21.098,VALID,35,VALID,0.00934103,
2008-11-22, 00:16:00,VALID,917.081,VALID,0,VALID,100,VALID,-0.0169808,VALID,21.108,VALID,24,VALID,0.434961,
2008-11-22, 00:17:00,VALID,917.064,VALID,0,VALID,100,VALID,0.0169808,VALID,21.098,VALID,18,VALID,0.0110085,
2008-11-22, 00:18:00,VALID,917.053,VALID,0,VALID,100,VALID,0.0169808,VALID,21.098,VALID,29,VALID,0.0548735,
2008-11-22, 00:19:00,VALID,917.049,VALID,0,VALID,100,VALID,0.0169808,VALID,21.1113,VALID,46,VALID,0,
2008-11-22, 00:20:00,VALID,917.055,VALID,0,VALID,100,VALID,0.0339617,VALID,21.1207,VALID,41,VALID,0,
2008-11-22, 00:21:00,VALID,917.066,VALID,0,VALID,100,VALID,0.0169808,VALID,21.1142,VALID,41,VALID,0,
2008-11-22, 00:22:00,VALID,917.078,VALID,0,VALID,100,VALID,0,VALID,21.105,VALID,41,VALID,0,
2008-11-22, 00:23:00,VALID,917.092,VALID,0,VALID,100,VALID,0,VALID,21.1175,VALID,40,VALID,0,
2008-11-22, 00:24:00,VALID,917.104,VALID,0,VALID,100,VALID,0.0339617,VALID,21.1007,VALID,30,VALID,0.0885417,
2008-11-22, 00:25:00,VALID,917.097,VALID,0,VALID,100,VALID,0,VALID,21.1048,VALID,23,VALID,0,
2008-11-22, 00:26:00,VALID,917.077,VALID,0,VALID,100,VALID,0,VALID,21.082,VALID,23,VALID,0,
2008-11-22, 00:27:00,VALID,917.09,VALID,0,VALID,100,VALID,0,VALID,21.0753,VALID,23,VALID,0,
2008-11-22, 00:28:00,VALID,917.082,VALID,0,VALID,100,VALID,0,VALID,21.0753,VALID,23,VALID,0,
2008-11-22, 00:29:00,VALID,917.076,VALID,0,VALID,100,VALID,0,VALID,21.0915,VALID,23,VALID,0,
2008-11-22, 00:30:00,VALID,917.063,VALID,0,VALID,100,VALID,-0.0169808,VALID,21.1142,VALID,23,VALID,0,
2008-11-22, 00:31:00,VALID,917.047,VALID,0,VALID,100,VALID,-0.0509425,VALID,21.124,VALID,23,VALID,0,
2008-11-22, 00:32:00,VALID,917.03,VALID,0,VALID,100,VALID,0,VALID,21.1307,VALID,23,VALID,0,
2008-11-22, 00:33:00,VALID,917.019,VALID,0,VALID,100,VALID,0,VALID,21.1142,VALID,23,VALID,0,
2008-11-22, 00:34:00,VALID,916.99,VALID,0,VALID,100,VALID,0,VALID,21.118,VALID,23,VALID,0,
2008-11-22, 00:35:00,VALID,916.97,VALID,0,VALID,100,VALID,-0.0339617,VALID,21.0948,VALID,23,VALID,0,
2008-11-22, 00:36:00,VALID,916.956,VALID,0,VALID,100,VALID,-0.0169808,VALID,21.0726,VALID,23,VALID,0,
2008-11-22, 00:37:00,VALID,916.939,VALID,0,VALID,100,VALID,-0.0169808,VALID,21.0723,VALID,23,VALID,0,
2008-11-22, 00:38:00,VALID,916.925,VALID,0,VALID,100,VALID,0.0339617,VALID,21.0785,VALID,23,VALID,0,
2008-11-22, 00:39:00,VALID,916.913,VALID,0,VALID,100,VALID,0,VALID,21.0758,VALID,23,VALID,0,
2008-11-22, 00:40:00,VALID,916.9,VALID,0,VALID,100,VALID,0.0169808,VALID,21.0688,VALID,23,VALID,0,
2008-11-22, 00:41:00,VALID,916.883,VALID,0,VALID,100,VALID,0.0169808,VALID,21.0818,VALID,23,VALID,0,
2008-11-22, 00:42:00,VALID,916.859,VALID,0,VALID,100,VALID,0.0169808,VALID,21.0726,VALID,23,VALID,0,
2008-11-22, 00:43:00,VALID,916.847,VALID,0,VALID,100,VALID,0.0339617,VALID,21.0591,VALID,23,VALID,0,
2008-11-22, 00:44:00,VALID,916.828,VALID,0,VALID,100,VALID,0,VALID,21.0431,VALID,23,VALID,0,
2008-11-22, 00:45:00,VALID,916.81,VALID,0,VALID,100,VALID,0,VALID,21.0169,VALID,23,VALID,0,
2008-11-22, 00:46:00,VALID,916.782,VALID,0,VALID,100,VALID,0,VALID,20.9876,VALID,23,VALID,0,
2008-11-22, 00:47:00,VALID,916.768,VALID,0,VALID,100,VALID,0,VALID,20.9776,VALID,23,VALID,0,
2008-11-22, 00:48:00,VALID,916.741,VALID,0,VALID,100,VALID,0.0339617,VALID,20.9876,VALID,23,VALID,0,
2008-11-22, 00:49:00,VALID,916.735,VALID,0,VALID,100,VALID,-0.0169808,VALID,21.0004,VALID,23,VALID,0,
2008-11-22, 00:50:00,VALID,916.715,VALID,0,VALID,100,VALID,0,VALID,20.9974,VALID,23,VALID,0,
2008-11-22, 00:51:00,VALID,916.718,VALID,0,VALID,100,VALID,0,VALID,21.0039,VALID,23,VALID,0,
2008-11-22, 00:52:00,VALID,916.713,VALID,0,VALID,100,VALID,0,VALID,21.0136,VALID,23,VALID,0,
2008-11-22, 00:53:00,VALID,916.713,VALID,0,VALID,100,VALID,0,VALID,21.0234,VALID,23,VALID,0,
2008-11-22, 00:54:00,VALID,916.713,VALID,0,VALID,100,VALID,0,VALID,21.0396,VALID,23,VALID,0,
2008-11-22, 00:55:00,VALID,916.698,VALID,0,VALID,100,VALID,0,VALID,21.0331,VALID,23,VALID,0,
2008-11-22, 00:56:00,VALID,916.704,VALID,0,VALID,100,VALID,0,VALID,21.0396,VALID,23,VALID,0,
2008-11-22, 00:57:00,VALID,916.682,VALID,0,VALID,100,VALID,0.0169808,VALID,21.0461,VALID,23,VALID,0,
2008-11-22, 00:58:00,VALID,916.654,VALID,0,VALID,100,VALID,0.0169808,VALID,21.0334,VALID,23,VALID,0,
2008-11-22, 00:59:00,VALID,916.635,VALID,0,VALID,100,VALID,0,VALID,21.0006,VALID,23,VALID,0.0653409,
2008-11-22, 01:00:00,VALID,916.62,VALID,0,VALID,100,VALID,0.0169808,VALID,20.9714,VALID,23,VALID,0,
2008-11-22, 01:01:00,VALID,916.604,VALID,0,VALID,100,VALID,0,VALID,20.9555,VALID,23,VALID,0,
2008-11-22, 01:02:00,VALID,916.581,VALID,0,VALID,100,VALID,0.0169808,VALID,20.939,VALID,22,VALID,0,
2008-11-22, 01:03:00,VALID,916.565,VALID,0,VALID,100,VALID,0,VALID,20.9325,VALID,22,VALID,0,
2008-11-22, 01:04:00,VALID,916.552,VALID,0,VALID,100,VALID,0,VALID,20.9457,VALID,22,VALID,0,
2008-11-22, 01:05:00,VALID,916.55,VALID,0,VALID,100,VALID,-0.0169808,VALID,20.9422,VALID,22,VALID,0,
2008-11-22, 01:06:00,VALID,916.56,VALID,0,VALID,100,VALID,0,VALID,20.9525,VALID,22,VALID,0,
2008-11-22, 01:07:00,VALID,916.553,VALID,0,VALID,100,VALID,0.0169808,VALID,20.9422,VALID,22,VALID,0,
2008-11-22, 01:08:00,VALID,916.552,VALID,0,VALID,100,VALID,0.0169808,VALID,20.926,VALID,22,VALID,0,
2008-11-22, 01:09:00,VALID,916.54,VALID,0,VALID,100,VALID,0,VALID,20.9003,VALID,22,VALID,0,
2008-11-22, 01:10:00,VALID,916.555,VALID,0,VALID,100,VALID,0,VALID,20.8646,VALID,22,VALID,0,
2008-11-22, 01:11:00,VALID,916.552,VALID,0,VALID,100,VALID,-0.0169808,VALID,20.8421,VALID,22,VALID,0,
2008-11-22, 01:12:00,VALID,916.563,VALID,0,VALID,100,VALID,-0.0509425,VALID,20.8189,VALID,22,VALID,0,
2008-11-22, 01:13:00,VALID,916.57,VALID,0,VALID,100,VALID,-0.0509425,VALID,20.8099,VALID,27,VALID,0.0939276,
2008-11-22, 01:14:00,VALID,916.554,VALID,0,VALID,100,VALID,-0.0169808,VALID,20.8197,VALID,35,VALID,0,
2008-11-22, 01:15:00,VALID,916.549,VALID,0,VALID,100,VALID,0,VALID,20.8383,VALID,32,VALID,0.0412427,
2008-11-22, 01:16:00,VALID,916.528,VALID,0,VALID,100,VALID,-0.0509425,VALID,20.8386,VALID,31,VALID,0,
2008-11-22, 01:17:00,VALID,916.502,VALID,0,VALID,100,VALID,0,VALID,20.8551,VALID,26,VALID,0,
2008-11-22, 01:18:00,VALID,916.507,VALID,0,VALID,100,VALID,-0.0169808,VALID,20.8354,VALID,29,VALID,0.0012429,
2008-11-22, 01:19:00,VALID,916.485,VALID,0,VALID,100,VALID,-0.0169808,VALID,20.8194,VALID,23,VALID,0,
2008-11-22, 01:20:00,VALID,916.482,VALID,0,VALID,100,VALID,0,VALID,20.8094,VALID,14,VALID,0,
2008-11-22, 01:21:00,VALID,916.47,VALID,0,VALID,100,VALID,0,VALID,20.8026,VALID,22,VALID,0,
2008-11-22, 01:22:00,VALID,916.451,VALID,0,VALID,100,VALID,0,VALID,20.7959,VALID,37,VALID,0,
2008-11-22, 01:23:00,VALID,916.456,VALID,0,VALID,100,VALID,0.0169808,VALID,20.8054,VALID,35,VALID,0,
2008-11-22, 01:24:00,VALID,916.455,VALID,0,VALID,100,VALID,0.0339617,VALID,20.8059,VALID,36,VALID,0,
2008-11-22, 01:25:00,VALID,916.444,VALID,0,VALID,100,VALID,0,VALID,20.8186,VALID,31,VALID,0,
2008-11-22, 01:26:00,VALID,916.449,VALID,0,VALID,100,VALID,0,VALID,20.8383,VALID,27,VALID,0,
2008-11-22, 01:27:00,VALID,916.433,VALID,0,VALID,100,VALID,0,VALID,20.8348,VALID,18,VALID,0,
2008-11-22, 01:28:00,VALID,916.44,VALID,0,VALID,100,VALID,0,VALID,20.8416,VALID,17,VALID,0,
2008-11-22, 01:29:00,VALID,916.441,VALID,0,VALID,100,VALID,0,VALID,20.8448,VALID,2,VALID,0,
2008-11-22, 01:30:00,VALID,916.438,VALID,0,VALID,100,VALID,0.0509425,VALID,20.8516,VALID,2,VALID,0,
2008-11-22, 01:31:00,VALID,916.44,VALID,0,VALID,100,VALID,0.0169808,VALID,20.8676,VALID,2,VALID,0,
2008-11-22, 01:32:00,VALID,916.443,VALID,0,VALID,100,VALID,0.0679233,VALID,20.8703,VALID,2,VALID,0,
2008-11-22, 01:33:00,VALID,916.431,VALID,0,VALID,100,VALID,0.0169808,VALID,20.8903,VALID,4,VALID,0,
2008-11-22, 01:34:00,VALID,916.424,VALID,0,VALID,100,VALID,0,VALID,20.8938,VALID,13,VALID,0,
2008-11-22, 01:35:00,VALID,916.43,VALID,0,VALID,100,VALID,0,VALID,20.8643,VALID,20,VALID,0,
2008-11-22, 01:36:00,VALID,916.417,VALID,0,VALID,100,VALID,0,VALID,20.8643,VALID,21,VALID,0,
2008-11-22, 01:37:00,VALID,916.405,VALID,0,VALID,100,VALID,-0.0169808,VALID,20.8381,VALID,11,VALID,0,
2008-11-22, 01:38:00,VALID,916.404,VALID,0,VALID,100,VALID,-0.0169808,VALID,20.8189,VALID,40,VALID,0,
2008-11-22, 01:39:00,VALID,916.405,VALID,0,VALID,100,VALID,0.0339617,VALID,20.8024,VALID,30,VALID,0,
2008-11-22, 01:40:00,VALID,916.404,VALID,0,VALID,100,VALID,0.0169808,VALID,20.7897,VALID,30,VALID,0,
2008-11-22, 01:41:00,VALID,916.402,VALID,0,VALID,100,VALID,0,VALID,20.7734,VALID,21,VALID,0,
2008-11-22, 01:42:00,VALID,916.397,VALID,0,VALID,100,VALID,0,VALID,20.7607,VALID,21,VALID,0,
2008-11-22, 01:43:00,VALID,916.381,VALID,0,VALID,100,VALID,0.0509425,VALID,20.7667,VALID,21,VALID,0,
2008-11-22, 01:44:00,VALID,916.394,VALID,0,VALID,100,VALID,0,VALID,20.7669,VALID,21,VALID,0,
2008-11-22, 01:45:00,VALID,916.388,VALID,0,VALID,100,VALID,0,VALID,20.7502,VALID,21,VALID,0,
2008-11-22, 01:46:00,VALID,916.39,VALID,0,VALID,100,VALID,0,VALID,20.7504,VALID,21,VALID,0,
2008-11-22, 01:47:00,VALID,916.391,VALID,0,VALID,100,VALID,0,VALID,20.7472,VALID,21,VALID,0,
2008-11-22, 01:48:00,VALID,916.401,VALID,0,VALID,100,VALID,0.0169808,VALID,20.7472,VALID,21,VALID,0,
2008-11-22, 01:49:00,VALID,916.398,VALID,0,VALID,100,VALID,0.0169808,VALID,20.7312,VALID,21,VALID,0,
2008-11-22, 01:50:00,VALID,916.406,VALID,0,VALID,100,VALID,0.0169808,VALID,20.7312,VALID,21,VALID,0,
2008-11-22, 01:51:00,VALID,916.419,VALID,0,VALID,100,VALID,0,VALID,20.728,VALID,21,VALID,0,
2008-11-22, 01:52:00,VALID,916.408,VALID,0,VALID,100,VALID,0,VALID,20.7175,VALID,21,VALID,0,
2008-11-22, 01:53:00,VALID,916.409,VALID,0,VALID,100,VALID,0,VALID,20.7153,VALID,21,VALID,0,
2008-11-22, 01:54:00,VALID,916.398,VALID,0,VALID,100,VALID,0.0339617,VALID,20.7177,VALID,21,VALID,0,
2008-11-22, 01:55:00,VALID,916.386,VALID,0,VALID,100,VALID,-0.0169808,VALID,20.7183,VALID,21,VALID,0,
2008-11-22, 01:56:00,VALID,916.355,VALID,0,VALID,100,VALID,0.0339617,VALID,20.724,VALID,21,VALID,0,
2008-11-22, 01:57:00,VALID,916.344,VALID,0,VALID,100,VALID,0.0849042,VALID,20.7334,VALID,21,VALID,0,
2008-11-22, 01:58:00,VALID,916.319,VALID,0,VALID,100,VALID,0.0169808,VALID,20.718,VALID,21,VALID,0,
2008-11-22, 01:59:00,VALID,916.294,VALID,0,VALID,100,VALID,0.0509425,VALID,20.715,VALID,14,VALID,0,
2008-11-22, 02:00:00,VALID,916.273,VALID,0,VALID,100,VALID,0,VALID,20.7083,VALID,357,VALID,0,
2008-11-22, 02:01:00,VALID,916.274,VALID,0,VALID,100,VALID,0.0169808,VALID,20.721,VALID,355,VALID,0,
2008-11-22, 02:02:00,VALID,916.263,VALID,0,VALID,100,VALID,-0.0169808,VALID,20.7345,VALID,354,VALID,0,
2008-11-22, 02:03:00,VALID,916.251,VALID,0,VALID,100,VALID,0,VALID,20.754,VALID,354,VALID,0,
2008-11-22, 02:04:00,VALID,916.239,VALID,0,VALID,100,VALID,0.0169808,VALID,20.7734,VALID,352,VALID,0,
2008-11-22, 02:05:00,VALID,916.239,VALID,0,VALID,100,VALID,-0.0169808,VALID,20.7867,VALID,352,VALID,0,
2008-11-22, 02:06:00,VALID,916.228,VALID,0,VALID,100,VALID,-0.0169808,VALID,20.7994,VALID,352,VALID,0,
2008-11-22, 02:07:00,VALID,916.199,VALID,0,VALID,100,VALID,0,VALID,20.8183,VALID,357,VALID,0,
2008-11-22, 02:08:00,VALID,916.187,VALID,0,VALID,100,VALID,-0.0169808,VALID,20.8381,VALID,33,VALID,0,
2008-11-22, 02:09:00,VALID,916.163,VALID,0,VALID,100,VALID,0.0169808,VALID,20.8381,VALID,37,VALID,0,
2008-11-22, 02:10:00,VALID,916.148,VALID,0,VALID,100,VALID,-0.0169808,VALID,20.8448,VALID,37,VALID,0,
2008-11-22, 02:11:00,VALID,916.119,VALID,0,VALID,100,VALID,0,VALID,20.8608,VALID,37,VALID,0,
2008-11-22, 02:12:00,VALID,916.1,VALID,0,VALID,100,VALID,0,VALID,20.8483,VALID,37,VALID,0,
2008-11-22, 02:13:00,VALID,916.08,VALID,0,VALID,100,VALID,0,VALID,20.8321,VALID,37,VALID,0,
2008-11-22, 02:14:00,VALID,916.07,VALID,0,VALID,100,VALID,0.0169808,VALID,20.8348,VALID,37,VALID,0,
2008-11-22, 02:15:00,VALID,916.044,VALID,0,VALID,100,VALID,0,VALID,20.8286,VALID,37,VALID,0,
2008-11-22, 02:16:00,VALID,916.045,VALID,0,VALID,100,VALID,0,VALID,20.8254,VALID,24,VALID,0,
2008-11-22, 02:17:00,VALID,916.047,VALID,0,VALID,100,VALID,0.0169808,VALID,20.8156,VALID,15,VALID,0,
2008-11-22, 02:18:00,VALID,916.04,VALID,0,VALID,100,VALID,0,VALID,20.8091,VALID,18,VALID,0,
2008-11-22, 02:19:00,VALID,916.044,VALID,0,VALID,100,VALID,-0.0169808,VALID,20.8226,VALID,28,VALID,0,
2008-11-22, 02:20:00,VALID,916.044,VALID,0,VALID,100,VALID,0,VALID,20.8256,VALID,28,VALID,0,
2008-11-22, 02:21:00,VALID,916.048,VALID,0,VALID,100,VALID,0,VALID,20.8319,VALID,28,VALID,0,
2008-11-22, 02:22:00,VALID,916.028,VALID,0,VALID,100,VALID,-0.0169808,VALID,20.8419,VALID,28,VALID,0,
2008-11-22, 02:23:00,VALID,916.027,VALID,0,VALID,100,VALID,-0.0169808,VALID,20.8416,VALID,17,VALID,0,
2008-11-22, 02:24:00,VALID,916.04,VALID,0,VALID,100,VALID,0,VALID,20.8159,VALID,8,VALID,0,
2008-11-22, 02:25:00,VALID,916.034,VALID,0,VALID,100,VALID,-0.0169808,VALID,20.8169,VALID,28,VALID,0,
2008-11-22, 02:26:00,VALID,916.041,VALID,0,VALID,100,VALID,0,VALID,20.7604,VALID,40,VALID,0,
2008-11-22, 02:27:00,VALID,916.06,VALID,0,VALID,100,VALID,0,VALID,20.7672,VALID,32,VALID,0,
2008-11-22, 02:28:00,VALID,916.058,VALID,0,VALID,100,VALID,0,VALID,20.7834,VALID,32,VALID,0,
2008-11-22, 02:29:00,VALID,916.05,VALID,0,VALID,100,VALID,-0.0339617,VALID,20.7837,VALID,30,VALID,0.0182927,
2008-11-22, 02:30:00,VALID,916.045,VALID,0,VALID,100,VALID,-0.0169808,VALID,20.7967,VALID,28,VALID,0.0102307,
2008-11-22, 02:31:00,VALID,916.026,VALID,0,VALID,100,VALID,-0.0169808,VALID,20.8062,VALID,28,VALID,0,
2008-11-22, 02:32:00,VALID,916.018,VALID,0,VALID,100,VALID,0.0169808,VALID,20.8126,VALID,9,VALID,0.158975,
2008-11-22, 02:33:00,VALID,916.026,VALID,0,VALID,100,VALID,0,VALID,20.8291,VALID,22,VALID,0,
2008-11-22, 02:34:00,VALID,916.025,VALID,0,VALID,100,VALID,-0.0169808,VALID,20.8197,VALID,359,VALID,0,
2008-11-22, 02:35:00,VALID,916.009,VALID,0,VALID,100,VALID,0,VALID,20.7897,VALID,22,VALID,0.0338542,
2008-11-22, 02:36:00,VALID,915.992,VALID,0,VALID,100,VALID,0,VALID,20.7704,VALID,34,VALID,0,
2008-11-22, 02:37:00,VALID,915.954,VALID,0,VALID,100,VALID,0,VALID,20.7412,VALID,100,VALID,0.0766369,
2008-11-22, 02:38:00,VALID,915.951,VALID,0,VALID,100,VALID,-0.0169808,VALID,20.728,VALID,28,VALID,0.0510671,
2008-11-22, 02:39:00,VALID,915.945,VALID,0,VALID,100,VALID,-0.0169808,VALID,20.709,VALID,26,VALID,0.0012718,
2008-11-22, 02:40:00,VALID,915.925,VALID,0,VALID,100,VALID,0,VALID,20.6831,VALID,13,VALID,0.0012718,
2008-11-22, 02:41:00,VALID,915.925,VALID,0,VALID,100,VALID,-0.0169808,VALID,20.6669,VALID,28,VALID,0,
2008-11-22, 02:42:00,VALID,915.927,VALID,0,VALID,100,VALID,-0.0169808,VALID,20.6666,VALID,27,VALID,0,
2008-11-22, 02:43:00,VALID,915.911,VALID,0,VALID,100,VALID,-0.0169808,VALID,20.6671,VALID,25,VALID,0,
2008-11-22, 02:44:00,VALID,915.899,VALID,0,VALID,100,VALID,0,VALID,20.6796,VALID,20,VALID,0.148256,
2008-11-22, 02:45:00,VALID,915.901,VALID,0,VALID,100,VALID,-0.0339617,VALID,20.6674,VALID,25,VALID,0.000710227,
2008-11-22, 02:46:00,VALID,915.895,VALID,0,VALID,100,VALID,0,VALID,20.6474,VALID,23,VALID,0.236683,
2008-11-22, 02:47:00,VALID,915.888,VALID,0,VALID,100,VALID,-0.0169808,VALID,20.6279,VALID,7,VALID,0,
2008-11-22, 02:48:00,VALID,915.888,VALID,0,VALID,100,VALID,-0.0169808,VALID,20.6279,VALID,6,VALID,0,
2008-11-22, 02:49:00,VALID,915.885,VALID,0,VALID,100,VALID,-0.0169808,VALID,20.6282,VALID,15,VALID,0,
2008-11-22, 02:50:00,VALID,915.893,VALID,0,VALID,100,VALID,-0.0339617,VALID,20.6282,VALID,25,VALID,0,
2008-11-22, 02:51:00,VALID,915.884,VALID,0,VALID,100,VALID,-0.0169808,VALID,20.5884,VALID,32,VALID,0.00130208,
2008-11-22, 02:52:00,VALID,915.883,VALID,0,VALID,100,VALID,-0.0509425,VALID,20.55,VALID,27,VALID,0.0291193,
2008-11-22, 02:53:00,VALID,915.875,VALID,0,VALID,100,VALID,-0.0169808,VALID,20.537,VALID,9,VALID,0,
2008-11-22, 02:54:00,VALID,915.86,VALID,0,VALID,100,VALID,-0.0169808,VALID,20.5498,VALID,8,VALID,0,
2008-11-22, 02:55:00,VALID,915.871,VALID,0,VALID,100,VALID,-0.0339617,VALID,20.5697,VALID,20,VALID,0,
2008-11-22, 02:56:00,VALID,915.86,VALID,0,VALID,100,VALID,0,VALID,20.5435,VALID,22,VALID,0,
2008-11-22, 02:57:00,VALID,915.844,VALID,0,VALID,100,VALID,-0.0339617,VALID,20.5343,VALID,12,VALID,0,
2008-11-22, 02:58:00,VALID,915.824,VALID,0,VALID,100,VALID,-0.0509425,VALID,20.5178,VALID,355,VALID,0,
2008-11-22, 02:59:00,VALID,915.791,VALID,0,VALID,100,VALID,-0.0169808,VALID,20.5081,VALID,356,VALID,0,
2008-11-22, 03:00:00,VALID,915.781,VALID,0,VALID,100,VALID,-0.0509425,VALID,20.4948,VALID,357,VALID,0,
2008-11-22, 03:01:00,VALID,915.771,VALID,0,VALID,100,VALID,-0.0339617,VALID,20.4986,VALID,357,VALID,0,
2008-11-22, 03:02:00,VALID,915.771,VALID,0,VALID,100,VALID,-0.0169808,VALID,20.4883,VALID,357,VALID,0,
2008-11-22, 03:03:00,VALID,915.768,VALID,0,VALID,100,VALID,-0.0169808,VALID,20.4948,VALID,357,VALID,0,
2008-11-22, 03:04:00,VALID,915.786,VALID,0,VALID,100,VALID,-0.0169808,VALID,20.5016,VALID,357,VALID,0,
2008-11-22, 03:05:00,VALID,915.775,VALID,0,VALID,100,VALID,0,VALID,20.5141,VALID,359,VALID,0,
2008-11-22, 03:06:00,VALID,915.778,VALID,0,VALID,100,VALID,0,VALID,20.527,VALID,26,VALID,0,
2008-11-22, 03:07:00,VALID,915.772,VALID,0,VALID,100,VALID,-0.0169808,VALID,20.5595,VALID,43,VALID,0,
2008-11-22, 03:08:00,VALID,915.772,VALID,0,VALID,100,VALID,0,VALID,20.5819,VALID,42,VALID,0,
2008-11-22, 03:09:00,VALID,915.752,VALID,0,VALID,100,VALID,0,VALID,20.6017,VALID,42,VALID,0,
2008-11-22, 03:10:00,VALID,915.745,VALID,0,VALID,100,VALID,0,VALID,20.6179,VALID,41,VALID,0,
2008-11-22, 03:11:00,VALID,915.733,VALID,0,VALID,100,VALID,-0.0169808,VALID,20.5982,VALID,41,VALID,0,
2008-11-22, 03:12:00,VALID,915.752,VALID,0,VALID,100,VALID,0,VALID,20.5787,VALID,41,VALID,0,
2008-11-22, 03:13:00,VALID,915.748,VALID,0,VALID,100,VALID,0,VALID,20.5852,VALID,41,VALID,0,
2008-11-22, 03:14:00,VALID,915.754,VALID,0,VALID,100,VALID,0.0339617,VALID,20.5655,VALID,41,VALID,0,
2008-11-22, 03:15:00,VALID,915.765,VALID,0,VALID,100,VALID,0.0169808,VALID,20.5597,VALID,41,VALID,0,
2008-11-22, 03:16:00,VALID,915.768,VALID,0,VALID,100,VALID,0,VALID,20.556,VALID,40,VALID,0,
2008-11-22, 03:17:00,VALID,915.782,VALID,0,VALID,100,VALID,0.0169808,VALID,20.556,VALID,40,VALID,0,
2008-11-22, 03:18:00,VALID,915.787,VALID,0,VALID,100,VALID,0,VALID,20.5562,VALID,40,VALID,0,
2008-11-22, 03:19:00,VALID,915.778,VALID,0,VALID,100,VALID,0,VALID,20.543,VALID,31,VALID,0,
2008-11-22, 03:20:00,VALID,915.765,VALID,0,VALID,100,VALID,0,VALID,20.53,VALID,28,VALID,0,
2008-11-22, 03:21:00,VALID,915.745,VALID,0,VALID,100,VALID,0,VALID,20.5365,VALID,28,VALID,0,
2008-11-22, 03:22:00,VALID,915.722,VALID,0,VALID,100,VALID,-0.0169808,VALID,20.5368,VALID,28,VALID,0,
2008-11-22, 03:23:00,VALID,915.67,VALID,0,VALID,100,VALID,-0.0169808,VALID,20.5595,VALID,28,VALID,0,
2008-11-22, 03:24:00,VALID,915.659,VALID,0,VALID,100,VALID,-0.0339617,VALID,20.5727,VALID,30,VALID,0,
2008-11-22, 03:25:00,VALID,915.641,VALID,0,VALID,100,VALID,-0.0339617,VALID,20.556,VALID,30,VALID,0,
2008-11-22, 03:26:00,VALID,915.611,VALID,0,VALID,100,VALID,-0.0169808,VALID,20.5657,VALID,30,VALID,0,
2008-11-22, 03:27:00,VALID,915.587,VALID,0,VALID,100,VALID,0.0169808,VALID,20.5495,VALID,30,VALID,0,
2008-11-22, 03:28:00,VALID,915.569,VALID,0,VALID,100,VALID,0.0169808,VALID,20.517,VALID,30,VALID,0,
2008-11-22, 03:29:00,VALID,915.553,VALID,0,VALID,100,VALID,0,VALID,20.5138,VALID,30,VALID,0,
2008-11-22, 03:30:00,VALID,915.562,VALID,0,VALID,100,VALID,0,VALID,20.5043,VALID,30,VALID,0,
2008-11-22, 03:31:00,VALID,915.575,VALID,0,VALID,100,VALID,0,VALID,20.4811,VALID,30,VALID,0,
2008-11-22, 03:32:00,VALID,915.594,VALID,0,VALID,100,VALID,0,VALID,20.4589,VALID,29,VALID,0,
2008-11-22, 03:33:00,VALID,915.604,VALID,0,VALID,100,VALID,-0.0169808,VALID,20.4327,VALID,29,VALID,0,
2008-11-22, 03:34:00,VALID,915.598,VALID,0,VALID,100,VALID,0,VALID,20.4067,VALID,29,VALID,0,
2008-11-22, 03:35:00,VALID,915.579,VALID,0,VALID,100,VALID,-0.0169808,VALID,20.3875,VALID,29,VALID,0,
2008-11-22, 03:36:00,VALID,915.563,VALID,0,VALID,100,VALID,-0.0339617,VALID,20.3813,VALID,29,VALID,0,
2008-11-22, 03:37:00,VALID,915.54,VALID,0,VALID,100,VALID,0,VALID,20.355,VALID,29,VALID,0,
2008-11-22, 03:38:00,VALID,915.525,VALID,0,VALID,100,VALID,-0.0339617,VALID,20.3488,VALID,29,VALID,0,
2008-11-22, 03:39:00,VALID,915.504,VALID,0,VALID,100,VALID,0.0169808,VALID,20.3313,VALID,29,VALID,0,
2008-11-22, 03:40:00,VALID,915.503,VALID,0,VALID,100,VALID,-0.0339617,VALID,20.3388,VALID,29,VALID,0,
2008-11-22, 03:41:00,VALID,915.492,VALID,0,VALID,100,VALID,-0.0169808,VALID,20.3353,VALID,25,VALID,0,
2008-11-22, 03:42:00,VALID,915.496,VALID,0,VALID,100,VALID,0,VALID,20.3353,VALID,25,VALID,0,
2008-11-22, 03:43:00,VALID,915.505,VALID,0,VALID,100,VALID,0,VALID,20.345,VALID,25,VALID,0,
2008-11-22, 03:44:00,VALID,915.539,VALID,0,VALID,100,VALID,-0.0169808,VALID,20.3385,VALID,27,VALID,0,
2008-11-22, 03:45:00,VALID,915.541,VALID,0,VALID,100,VALID,-0.0169808,VALID,20.3615,VALID,31,VALID,0,
2008-11-22, 03:46:00,VALID,915.547,VALID,0,VALID,100,VALID,0,VALID,20.371,VALID,31,VALID,0,
2008-11-22, 03:47:00,VALID,915.55,VALID,0,VALID,100,VALID,-0.0339617,VALID,20.3807,VALID,31,VALID,0,
2008-11-22, 03:48:00,VALID,915.541,VALID,0,VALID,100,VALID,0,VALID,20.4037,VALID,31,VALID,0,
2008-11-22, 03:49:00,VALID,915.538,VALID,0,VALID,100,VALID,0,VALID,20.4067,VALID,31,VALID,0,
2008-11-22, 03:50:00,VALID,915.541,VALID,0,VALID,100,VALID,0,VALID,20.4234,VALID,31,VALID,0,
2008-11-22, 03:51:00,VALID,915.541,VALID,0,VALID,100,VALID,-0.0169808,VALID,20.4362,VALID,31,VALID,0,
2008-11-22, 03:52:00,VALID,915.526,VALID,0,VALID,100,VALID,0,VALID,20.4551,VALID,31,VALID,0,
2008-11-22, 03:53:00,VALID,915.535,VALID,0,VALID,100,VALID,0,VALID,20.4389,VALID,31,VALID,0,
2008-11-22, 03:54:00,VALID,915.534,VALID,0,VALID,100,VALID,0,VALID,20.4427,VALID,31,VALID,0,
2008-11-22, 03:55:00,VALID,915.532,VALID,0,VALID,100,VALID,0,VALID,20.4456,VALID,31,VALID,0,
2008-11-22, 03:56:00,VALID,915.526,VALID,0,VALID,100,VALID,-0.0169808,VALID,20.4586,VALID,31,VALID,0,
2008-11-22, 03:57:00,VALID,915.53,VALID,0,VALID,100,VALID,0,VALID,20.4651,VALID,31,VALID,0,
2008-11-22, 03:58:00,VALID,915.553,VALID,0,VALID,100,VALID,-0.0339617,VALID,20.4784,VALID,31,VALID,0,
2008-11-22, 03:59:00,VALID,915.579,VALID,0,VALID,100,VALID,0,VALID,20.4713,VALID,31,VALID,0,